Regional Weather Roundup
Issued by NWS

Home | Current Version | Previous Version | Text Only | Print | Product List | Glossary Off
Versions: 1 2 3 4 5 6 7 8 9 10 11 12 13 14 15 16 17 18 19 20 21 22 23 24 25 26 27 28 29 30 31 32 33 34 35 36 37 38 39 40 41 42 43 44 45 46 47 48 49 50

000
ASUS45 KBOI 292110
RWRID
WEATHER ROUNDUP FOR IDAHO
NATIONAL WEATHER SERVICE BOISE ID
300 PM MDT TUE JUL 29 2014

NOTE: "FAIR" INDICATES FEW OR NO CLOUDS BELOW 12000 FEET
WITH NO SIGNIFICANT WEATHER AND/OR OBSTRUCTIONS TO VISIBILITY

IDZ012-014-292200-
SOUTHWEST IDAHO


CITY           SKY/WX    TMP DP  RH WIND       PRES   REMARKS
BOISE          MOSUNNY   95  50  21 W12       30.02F HX  92
CALDWELL       MOSUNNY   93  55  27 N3        30.04F HX  91
MOUNTAIN HOME  MOSUNNY   91  49  23 E5        30.05F
$$

IDZ016-017-292200-
SOUTHCENTRAL IDAHO


CITY           SKY/WX    TMP DP  RH WIND       PRES   REMARKS
BURLEY         PTSUNNY   84  54  35 E14       30.15F
JEROME         PTSUNNY   89  51  27 E13G20    30.14F
TWIN FALLS     MOSUNNY   87  50  27 E8        30.15F
$$

IDZ019>023-292200-
SOUTHEAST IDAHO


CITY           SKY/WX    TMP DP  RH WIND       PRES   REMARKS
IDAHO FALLS    CLOUDY    71  59  65 CALM      30.24S
POCATELLO      CLOUDY    74  57  55 NE7       30.21F
REXBURG        CLOUDY    71  57  61 S5        30.24F
$$

IDZ006-010-011-018-031-032-292200-
CENTRAL IDAHO MOUNTAINS


CITY           SKY/WX    TMP DP  RH WIND       PRES   REMARKS
MCCALL         LGT RAIN  77  42  28 E8G24     30.22S
HAILEY         CLOUDY    79  52  38 SE8       30.25S
STANLEY          N/A     74  39  28 VRB7      30.33R
SALMON         PTSUNNY   91  45  19 NW5       30.07S
CHALLIS        CLOUDY    82  45  27 NW14      30.20F
$$

IDZ002-004-006-007-026-292200-
NORTHERN IDAHO


CITY           SKY/WX    TMP DP  RH WIND       PRES   REMARKS
LEWISTON       SUNNY    102  40  12 W5        29.98F HX  97
LOWELL           N/A    103  53  19 CALM      29.96F HX 101
COEUR D`ALENE  SUNNY     97  45  16 SE5       30.04F HX  93
MULLAN PASS    MOSUNNY   79  37  22 CALM      30.33F
$$


USA.gov is the U.S. government's official web portal to all federal, state and local government web resources and services.